Sandberg, CA

9:03 PM PDT on September 25, 2017 (GMT -0700)
Sandberg

Weather History for KSDB - March, 2012

Change the Weather History Date:

Thursday, March 29, 2012

  Actual Average Record
Temperature  
Mean Temperature 51 °F 48 °F  
Max Temperature 60 °F 56 °F 82 °F (2015)
Min Temperature 41 °F 40 °F 23 °F (1967)
Degree Days  
Heating Degree Days 14 17  
Month to date heating degree days 556 536  
Since 1 July heating degree days 3114 3295  
Cooling Degree Days 0 0  
Month to date cooling degree days 0 0  
Year to date cooling degree days 0 0  
Moisture  
Dew Point 40 °F    
Average Humidity 67    
Maximum Humidity 100    
Minimum Humidity 33    
Precipitation  
Precipitation 0.00 in 0.05 in 1.26 in (1946)
Month to date precipitation 1.85 1.65  
Year to date precipitation 2.65 7.30  
Since 1 July precipitation 5.15  
Sea Level Pressure  
Sea Level Pressure 30.06 in    
Wind  
Wind Speed 19 mph (NNW)    
Max Wind Speed 31 mph    
Max Gust Speed 46 mph    
Visibility 8 miles    
Events Fog    
T = Trace of Precipitation, MM = Missing Value Source: NWS Daily Summary

Daily Weather History Graph

Daily Weather History Graph

Search for Another Location

Airport or City:

Trip Planner

Search our weather history database for the weather conditions in past years. The results will help you decide how hot, cold, wet, or windy it might be!

Date:

Astronomy

Mar. 29, 2012 Rise Set
Actual Time 6:45 AM PDT 7:14 PM PDT
Civil Twilight 6:19 AM PDT 7:39 PM PDT
Nautical Twilight 5:50 AM PDT 8:09 PM PDT
Astronomical Twilight 5:19 AM PDT 8:39 PM PDT
Moon 11:10 AM PDT (3/29) 12:57 AM PDT (3/29)
Length of Visible Light 13h 19m
Length of Day
12h 28m
Waxing Crescent, 40% of the Moon is Illuminated
Mar 29
Waxing Crescent
Mar 30
First Quarter
Apr 6
Full
Apr 13
Last Quarter
Apr 21
New

Hourly Weather History & Observations

Time (PDT) Temp. Windchill Dew Point Humidity Pressure Visibility Wind Dir Wind Speed Gust Speed Precip Events Conditions
12:48 AM 45.0 °F 37.9 °F 39.9 °F 82% 30.05 in 10.0 mi NNW 16.1 mph 23.0 mph N/A   Partly Cloudy
1:05 AM 44.6 °F 38.1 °F 41.0 °F 87% 30.10 in 10.0 mi NNW 13.8 mph - N/A   Mostly Cloudy
1:14 AM 44.6 °F 36.9 °F 39.2 °F 81% 30.10 in 10.0 mi NNW 18.4 mph 27.6 mph N/A   Scattered Clouds
1:19 AM 44.6 °F 37.4 °F 41.0 °F 87% 30.10 in 10.0 mi NNW 16.1 mph 25.3 mph N/A   Mostly Cloudy
1:36 AM 44.6 °F 36.9 °F 41.0 °F 87% 30.09 in 10.0 mi North 18.4 mph 28.8 mph N/A   Mostly Cloudy
1:48 AM 44.1 °F 35.0 °F 41.0 °F 89% 30.03 in 10.0 mi NNW 24.2 mph - N/A   Mostly Cloudy
2:04 AM 44.6 °F 35.9 °F 41.0 °F 87% 30.08 in 10.0 mi NNW 23.0 mph - N/A   Scattered Clouds
2:18 AM 44.6 °F 35.5 °F 41.0 °F 87% 30.07 in 10.0 mi NNW 25.3 mph 32.2 mph N/A   Mostly Cloudy
2:48 AM 43.0 °F 35.4 °F 41.0 °F 93% 30.02 in 10.0 mi North 16.1 mph 32.2 mph N/A   Overcast
2:53 AM 42.8 °F 33.8 °F 41.0 °F 93% 30.08 in 10.0 mi North 21.9 mph 28.8 mph N/A   Overcast
2:59 AM 42.8 °F 35.4 °F 41.0 °F 93% 30.08 in 7.0 mi North 15.0 mph 28.8 mph N/A   Overcast
3:34 AM 42.8 °F 36.6 °F 42.8 °F 100% 30.08 in 1.5 mi North 11.5 mph 26.5 mph N/A   Overcast
3:38 AM 42.8 °F 36.2 °F 42.8 °F 100% 30.08 in 0.8 mi North 12.7 mph 26.5 mph N/A   Overcast
3:44 AM 42.8 °F 40.1 °F 41.0 °F 93% 30.08 in 1.5 mi Variable 4.6 mph 27.6 mph N/A   Overcast
3:48 AM 43.0 °F 36.4 °F 41.0 °F 93% 30.01 in 5.0 mi North 12.7 mph 27.6 mph N/A   Overcast
3:56 AM 42.8 °F 35.8 °F 42.8 °F 100% 30.08 in 1.0 mi North 13.8 mph 32.2 mph N/A   Overcast
3:58 AM 42.8 °F 37.5 °F 42.8 °F 100% 30.08 in 0.5 mi North 9.2 mph 32.2 mph N/A Fog Fog
4:04 AM 42.8 °F 37.5 °F 42.8 °F 100% 30.08 in 0.2 mi North 9.2 mph 32.2 mph N/A Fog Fog
4:48 AM 42.1 °F 32.6 °F 42.1 °F 100% 30.01 in 0.2 mi North 23.0 mph 31.1 mph N/A Fog Fog
5:48 AM 42.1 °F 32.3 °F 41.0 °F 96% 30.01 in 0.2 mi North 24.2 mph 39.1 mph N/A Fog Fog
6:40 AM 41.0 °F 30.5 °F 39.2 °F 93% 30.09 in 1.2 mi NNW 26.5 mph 36.8 mph N/A   Overcast
6:44 AM 41.0 °F 31.6 °F 39.2 °F 93% 30.09 in 2.0 mi NNW 20.7 mph 36.8 mph N/A   Overcast
6:48 AM 41.0 °F 32.2 °F 39.9 °F 96% 30.04 in 4.0 mi NNW 18.4 mph 36.8 mph N/A   Overcast
7:13 AM 41.0 °F 31.4 °F 39.2 °F 93% 30.10 in 10.0 mi NNW 21.9 mph 35.7 mph N/A   Mostly Cloudy
7:22 AM 41.0 °F 31.4 °F 39.2 °F 93% 30.10 in 7.0 mi NNW 21.9 mph 31.1 mph N/A   Mostly Cloudy
7:48 AM 41.0 °F 33.1 °F 39.9 °F 96% 30.06 in 10.0 mi North 15.0 mph 29.9 mph N/A   Mostly Cloudy
8:09 AM 42.8 °F 33.5 °F 39.2 °F 87% 30.11 in 10.0 mi North 23.0 mph 31.1 mph N/A   Scattered Clouds
8:48 AM 43.0 °F 34.0 °F 39.9 °F 89% 30.06 in 10.0 mi North 21.9 mph 34.5 mph N/A   Scattered Clouds
8:53 AM 44.6 °F 35.9 °F 39.2 °F 81% 30.11 in 10.0 mi North 23.0 mph 28.8 mph N/A   Mostly Cloudy
9:38 AM 44.6 °F 35.5 °F 41.0 °F 87% 30.12 in 10.0 mi North 25.3 mph 34.5 mph N/A   Scattered Clouds
9:48 AM 46.0 °F 37.4 °F 39.9 °F 79% 30.06 in 10.0 mi NNW 25.3 mph 34.5 mph N/A   Partly Cloudy
10:48 AM 48.9 °F - 39.9 °F 71% 30.06 in 10.0 mi North 20.7 mph 26.5 mph N/A   Clear
11:48 AM 52.0 °F - 37.9 °F 59% 30.03 in 10.0 mi North 8.1 mph 17.3 mph N/A   Clear
12:48 PM 53.6 °F - 32.0 °F 44% - 10.0 mi NNW 15.0 mph 21.9 mph N/A   Clear
1:23 PM 59.0 °F - 30.2 °F 34% 30.07 in 10.0 mi North 16.1 mph 19.6 mph N/A   Partly Cloudy
1:48 PM 59.0 °F - 30.0 °F 33% 29.97 in 10.0 mi NNW 15.0 mph - N/A   Clear
2:48 PM 55.9 °F - 39.0 °F 53% 29.97 in 10.0 mi North 20.7 mph 26.5 mph N/A   Clear
3:48 PM 53.1 °F - 43.0 °F 69% 29.98 in 10.0 mi North 17.3 mph 25.3 mph N/A   Clear
4:48 PM 53.1 °F - 43.0 °F 69% 29.99 in 10.0 mi North 16.1 mph 25.3 mph N/A   Clear
5:48 PM 48.9 °F - 41.0 °F 74% 30.01 in 10.0 mi NNW 20.7 mph - N/A   Clear
6:48 PM 48.9 °F - 41.0 °F 74% 30.01 in 10.0 mi NNW 19.6 mph - N/A   Clear
7:48 PM 46.9 °F - 39.9 °F 77% 30.03 in 10.0 mi NNW 21.9 mph 29.9 mph N/A   Clear
8:48 PM 46.0 °F 37.6 °F 39.0 °F 76% 30.04 in 10.0 mi NNW 24.2 mph 32.2 mph N/A   Clear
9:48 PM 46.9 °F - 37.9 °F 71% 30.04 in 10.0 mi NNW 19.6 mph 27.6 mph N/A   Clear
10:48 PM 46.9 °F - 35.1 °F 63% 30.03 in 10.0 mi NNW 20.7 mph 34.5 mph N/A   Clear
11:48 PM 48.0 °F - 30.9 °F 52% 30.01 in 10.0 mi North 23.0 mph 32.2 mph N/A   Clear